Find SITRO-AIS-56

NORAD ID: 59809 Int'l Des: 2024-092 Owner: SITRO Country: RU Constellation: sitronics operational
LEOCIRCULARRETROGRADESSO

实时位置

正在加载3D地球...

关于 SITRO-AIS-56

正在加载描述...

即将过境

Passes for default location (London). Set your location on the main map for personalized predictions.

高度历史

Loading altitude history...

两行轨道根数

1 59809U 24092K 26106.90708705 .00011630 00000-0 35025-3 0 9998
2 59809 97.6481 237.3892 0007303 15.3508 344.7955 15.34486249105837
Epoch: Apr 16, 2026 • Age: 5 hours

当前状态

高度 469.7 km
速度 7.63 km/s
星下点 4.82°N, 164.62°E
发射日期 May 16, 2024
运行时间 1.9 years
类型 other

技术详情

分类 Payload
质量 3.00 kg
干质量 3.00 kg
总质量 3.00 kg
长度 0.30 m
直径 0.10 m
跨度 0.30 m
形状 Box
制造商 SPUT
平台类型 Cubesat 3U
阶段状态 In Orbit
所有者/国家 SITRO/RU

Most Searched